Skip Page Navigation
NASA JPL Caltech
NASA Logo - Jet Propulsion Laboratory + View the NASA Portal
+ Center for Near-Earth Object Studies
JPL Home Earth Solar System Stars & Galaxies Technology
JPL Solar System Dynamics
BODIES ORBITS EPHEMERIDES TOOLS PHYSICAL DATA DISCOVERY FAQ SITE MAP
IMPORTANT: The SSD Announcement email list is now available. Major changes are coming in the near future, including possible hostname and/or URL changes. To be notified of such changes, subscribe to this email list.

Please visit this page for more details.


JPL Small-Body Database Browser
Search: [ help ]  
447465 (2006 PH15)
Classification: Main-belt Asteroid          SPK-ID: 2447465
Ephemeris | Orbit Diagram | Orbital Elements | Mission Design | Physical Parameters | Discovery Circumstances ]

[ show orbit diagram ]
Orbital Elements at Epoch 2459000.5 (2020-May-31.0) TDB
Reference: JPL 11 (heliocentric ecliptic J2000)
 Element Value Uncertainty (1-sigma)   Units 
e .1925365125337086 1.1218e-07  
a 2.650781596586882 2.042e-08 au
q 2.140409352491508 2.9705e-07 au
i 11.26057360924072 1.0653e-05 deg
node 324.5371374606016 2.8884e-05 deg
peri 2.733969197059772 3.5543e-05 deg
M 71.74283277731621 1.5534e-05 deg
tp 2458686.351227470974
(2019-Jul-21.85122747)
6.8549e-05 TDB
period 1576.374304336189
4.32
1.8215e-05
4.987e-08
d
yr
n .2283721569234764 2.6389e-09 deg/d
Q 3.161153840682257 2.4352e-08 au
  Orbit Determination Parameters
   # obs. used (total)      153  
   data-arc span      4790 days (13.11 yr)  
   first obs. used      2006-08-15  
   last obs. used      2019-09-26  
   planetary ephem.      DE431  
   SB-pert. ephem.      SB431-N16  
   condition code      0  
   norm. resid. RMS      .60906  
   source      ORB  
   producer      Otto Matic  
   solution date      2019-Nov-08 16:21:12  

Additional Information
 Earth MOID = 1.1289 au 
 Jupiter MOID = 2.18941 au 
 T_jup = 3.337 
[ show covariance matrix ]

Ephemeris | Orbit Diagram | Orbital Elements | Mission Design | Physical Parameters | Discovery Circumstances ]

Physical Parameter Table
Parameter Symbol Value Units Sigma Reference Notes
absolute magnitude H 16.7   n/a MPO495220  

447465 (2006 PH15)          Discovered 2006-Aug-15 by NEAT at Palomar
Reference: Last Updated: 2015-10-28
Ephemeris | Orbit Diagram | Orbital Elements | Mission Design | Physical Parameters | Discovery Circumstances ]
ABOUT SSD CREDITS/AWARDS PRIVACY/COPYRIGHT GLOSSARY LINKS
FirstGov 2020-May-30 20:46 UT
(server date/time)  
NASA Home Page
Site Manager:   Ryan S. Park
Webmaster  Alan B. Chamberlin